Regional Weather Roundup
Issued by NWS Burlington, VT

Home | Current Version | Previous Version | Text Only | Print | Product List | Glossary On
Versions: 1 2 3 4 5 6 7 8 9 10 11 12 13 14 15 16 17 18 19 20 21 22 23 24 25 26 27 28 29 30 31 32 33 34 35 36 37 38 39 40 41 42 43 44 45 46 47 48 49 50
673
ASUS41 KBTV 251510
RWRBTV
VERMONT REGIONAL WEATHER ROUNDUP
NATIONAL WEATHER SERVICE BURLINGTON VT
1100 AM EDT TUE JUL 25 2017

NOTE: "FAIR" INDICATES FEW OR NO CLOUDS BELOW 12,000 FEET WITH NO
SIGNIFICANT WEATHER AND/OR OBSTRUCTIONS TO VISIBILITY.

* THESE REPORTS ARE NOT UNDER NWS QUALITY CONTROL AND/OR DO NOT
  REPORT WEATHER SUCH AS PRECIPITATION AND FOG.

VTZ001>019-251600-
_____VERMONT_____


CITY           SKY/WX    TMP DP  RH WIND       PRES   REMARKS
BURLINGTON     CLOUDY    62  57  83 NW5       30.14S
MONTPELIER     CLOUDY    58  55  90 VRB5      30.18S
MORRISVILLE    CLOUDY    58  53  84 N3        30.17R
ST. JOHNSBURY*   N/A     61  55  81 MISG      30.12S
LYNDONVILLE*   CLOUDY    60  52  75 CALM      30.16S
MIDDLEBURY*    CLOUDY    59  57  92 N6        30.14R
RUTLAND*       CLOUDY    60  53  77 SE6       30.13R
SPRINGFIELD    CLOUDY    59  52  77 CALM      30.14R
HIGHGATE*      CLOUDY    61  56  84 N3        30.15S
NEWPORT*       CLOUDY    58  54  86 NW6       30.17R
BENNINGTON     CLOUDY    60  54  80 N6        30.11R
SUTTON*          N/A     59 N/A N/A MISG        N/A

_____LAKE CHAMPLAIN_____


CITY           SKY/WX    TMP DP  RH WIND       PRES   REMARKS
BURTON ISLAND*   N/A     63  57  82 N1          N/A
COLCHESTER RF*   N/A     61  57  88 N6          N/A
DIAMOND ISL*     N/A     61  55  82 NW6         N/A

$$

NYZ007-026>031-035-052-083-087-251600-
_____NORTHERN NEW YORK_____


CITY           SKY/WX    TMP DP  RH WIND       PRES   REMARKS
PLATTSBURGH    CLOUDY    59  56  89 NE5       30.15R FOG
SARANAC LAKE   CLOUDY    54  54 100 NE10      30.12R
MASSENA        CLOUDY    62  58  86 NE12      30.16R
OGDENSBURG*    CLOUDY    61  56  84 NE10G17   30.14R
POTSDAM*       CLOUDY    36  36 100 NE10G16   30.14R WCI  28
WATERTOWN      CLOUDY    59  58  96 NE16      30.11R
FT DRUM        CLOUDY    59  57  94 NE14      30.10R FOG
ALBANY         LGT RAIN  60  56  86 NW3       30.11R FOG
GLENS FALLS    CLOUDY    61  53  75 VRB3      30.12R

$$
NHZ002-005-011-251600-
_____NEW HAMPSHIRE_____


CITY           SKY/WX    TMP DP  RH WIND       PRES   REMARKS
LEBANON        CLOUDY    61  56  83 N3        30.12S
KEENE          CLOUDY    58  55  90 N3        30.13R
MT WASHINGTON  FOG       37  37 100 E21G28      N/A  VSB 0   WCI  27
PLYMOUTH       CLOUDY    63  54  72 CALM      30.12F
WHITEFIELD     CLOUDY    65  51  60 NE7       30.13S

$$

_____REGIONAL QUEBEC LOCATIONS_____


CITY           SKY/WX    TMP DP  RH WIND       PRES   REMARKS
MONTREAL       PTSUNNY   64  57  77 NE9       30.16S
QUEBEC CITY    PTSUNNY   66  48  52 VRB3      30.15S
SHERBROOKE     CLOUDY    63  55  77 VRB5      30.15R

_____REGIONAL ONTARIO LOCATIONS_____


CITY           SKY/WX    TMP DP  RH WIND       PRES   REMARKS
OTTAWA         PTSUNNY   64  57  77 NE14G21   30.17R

______KEY______
VSB  - VISIBILITY IN MILES
WCI  - WIND CHILL INDEX
HX   - HEAT INDEX
$$
NNNN




USA.gov is the U.S. government's official web portal to all federal, state and local government web resources and services.